GFSGL_sfc_rhum_045.txt.gz
RH
19 22 24 26 26 26 28 30 31 32 32 32 32 33 32 33 31 32 31 31 32 32 36 40 38 38 42 44 46 48 53 56 63 55 50 45 40 37 33 39 42 47 62
23 25 28 29 30 31 31 31 30 32 33 33 33 33 32 32 31 32 32 28 30 33 34 38 38 31 42 46 46 49 51 54 59 65 54 54 61 43 37 46 38 30 42
26 29 31 32 33 33 32 32 32 33 35 35 35 36 35 35 34 33 32 31 31 31 31 32 34 35 38 42 44 46 48 47 57 60 62 58 58 52 46 44 48 41 33
30 32 35 35 36 38 39 41 42 38 40 39 38 38 38 36 37 36 39 43 39 34 32 32 30 33 38 43 42 44 41 54 64 70 64 67 64 65 52 49 50 46 43
32 36 39 38 41 42 49 52 48 48 49 47 44 40 41 38 34 40 43 51 53 48 41 34 38 42 49 43 42 47 51 50 71 74 78 69 69 69 60 56 52 49 46
40 41 42 44 50 52 52 53 51 56 60 56 50 47 47 39 48 55 57 56 60 57 64 66 37 48 44 48 51 53 56 61 68 78 77 78 69 68 59 56 54 59 56
40 45 49 49 53 55 55 57 65 73 72 72 72 64 56 51 57 59 64 62 61 62 80 86 45 30 48 39 45 50 55 59 60 65 74 70 68 63 58 56 57 58 52
46 49 52 52 52 56 59 68 78 80 92 96 94 82 58 54 61 63 67 69 72 64 63 55 47 42 41 42 42 44 47 52 60 56 65 64 61 59 59 50 51 54 56
53 51 52 53 61 67 73 85 91 93 96 94 83 63 64 57 61 62 65 72 74 70 68 60 54 46 49 49 51 58 56 58 55 63 68 71 70 71 69 69 70 69 70
53 55 57 61 67 74 82 94 95 96 95 93 88 62 62 63 65 65 65 75 75 69 66 62 62 54 50 51 52 56 68 65 70 64 67 77 75 75 74 73 60 65 62
55 60 62 67 73 73 84 93 96 96 92 75 66 61 60 55 59 64 69 67 70 68 62 56 46 52 50 54 58 61 59 60 68 71 74 80 83 86 85 79 62 58 60
59 71 70 71 72 75 84 90 95 96 93 74 66 58 55 49 54 56 60 60 57 63 59 50 48 56 53 57 60 60 67 71 78 78 86 84 93 89 77 67 60 54 58
73 75 71 70 72 73 85 94 96 96 96 88 66 70 63 51 52 57 59 60 59 60 60 60 60 59 60 64 67 68 70 80 83 85 90 88 81 73 60 58 52 64 65
79 72 73 77 80 84 91 95 96 96 96 95 86 81 71 61 57 56 57 63 60 61 63 72 71 68 68 73 73 75 78 80 82 86 89 86 79 73 75 67 73 73 76
75 76 78 83 92 90 93 96 95 90 92 94 88 80 85 86 74 69 70 68 74 75 79 85 86 86 84 83 83 82 84 82 84 90 90 93 89 81 67 64 67 74 82
80 84 87 95 92 95 96 95 90 81 82 83 84 88 88 89 91 90 91 86 77 74 87 93 94 93 92 85 88 90 92 90 92 91 89 85 81 72 65 67 80 87 88
76 84 95 96 96 96 96 96 97 89 86 88 90 89 89 87 89 90 89 90 90 88 95 97 97 96 96 95 95 94 95 93 88 83 82 77 70 57 73 87 91 91 90
78 92 96 96 96 96 96 96 95 96 97 94 88 87 86 86 87 88 90 90 94 94 95 97 97 96 95 94 92 91 90 87 84 75 69 76 82 86 91 93 94 92 86
81 96 96 97 97 97 96 94 93 95 95 94 92 86 85 81 83 84 84 91 95 96 95 95 93 92 91 89 87 86 84 83 84 89 89 91 92 94 95 94 94 84 83
85 96 96 97 96 96 97 96 95 95 94 94 94 92 86 79 80 77 77 80 82 82 81 80 78 74 76 77 79 83 88 90 93 95 95 96 96 96 96 93 79 80 82
94 96 97 96 96 97 97 97 94 96 97 97 95 88 86 85 86 84 84 83 83 83 82 82 80 81 81 81 82 90 93 95 97 98 98 99 98 98 96 83 78 83 86
92 96 96 97 97 97 97 97 97 97 96 96 96 94 96 95 94 94 93 91 87 86 84 80 83 83 83 85 84 88 94 96 97 98 99 99 98 97 92 82 82 84 87
90 96 96 96 96 97 97 97 97 97 96 96 96 96 96 96 97 96 95 91 88 85 77 77 77 73 71 73 76 87 96 95 98 98 99 99 99 95 86 84 80 83 86
89 96 96 97 97 96 97 97 97 97 96 96 96 96 96 97 97 96 95 90 84 76 72 68 68 71 75 76 79 88 95 97 96 98 97 97 97 94 92 86 82 80 83
86 93 96 97 97 97 97 97 97 97 97 96 96 96 97 97 97 96 94 89 82 77 74 70 66 68 72 75 79 87 96 98 96 97 95 94 95 95 94 86 83 84 82
85 89 94 97 97 97 97 97 97 97 97 96 96 97 97 97 97 96 90 82 81 78 76 71 59 58 62 71 80 89 94 96 96 96 93 93 95 95 95 93 90 88 86

GFSGL_sfc_rhum_051.txt.gz
RH
32 36 40 43 45 47 50 51 47 50 54 56 53 52 50 49 47 48 47 45 44 42 45 46 48 46 49 50 82 76 74 84 74 77 84 84 91 92 84 80 78 85 73
36 41 44 46 50 54 55 50 56 52 52 51 50 51 52 52 51 53 53 49 48 46 45 48 46 38 47 54 62 67 66 85 91 92 88 87 92 94 94 92 76 67 90
40 44 48 55 57 52 60 54 49 50 50 50 51 55 55 57 58 57 57 55 52 48 45 50 47 46 52 49 79 86 83 68 87 96 93 95 96 94 94 90 81 77 75
43 48 55 57 56 64 55 54 52 51 50 51 51 52 54 56 57 59 62 64 60 52 47 51 51 54 56 63 73 82 83 88 91 95 94 95 95 94 90 90 90 80 82
48 53 56 59 56 52 54 53 50 49 46 50 52 56 58 61 59 68 74 71 67 61 55 54 62 62 66 63 61 68 83 90 94 95 95 96 96 94 92 91 85 79 75
55 51 56 56 52 54 55 55 52 56 57 58 58 62 68 65 77 81 75 79 80 84 80 73 62 64 68 75 73 71 81 89 85 94 96 94 94 93 95 94 84 75 75
56 53 55 53 54 56 55 54 57 60 57 61 68 73 78 78 77 82 81 74 80 81 83 85 72 63 74 68 71 61 67 86 75 90 92 95 94 92 92 92 85 80 71
58 56 56 55 57 60 56 58 62 66 75 83 82 78 78 80 85 84 76 74 79 76 82 78 82 78 75 84 87 88 86 90 87 80 82 82 87 84 86 80 84 80 74
61 61 57 59 59 59 63 68 73 78 82 81 79 79 83 80 84 83 78 77 81 80 79 76 78 78 78 76 84 94 91 81 65 83 76 72 69 74 79 89 92 80 84
61 60 58 54 57 64 71 75 75 77 80 80 85 89 90 89 82 80 76 79 86 84 84 81 73 77 75 70 84 93 94 88 84 80 84 74 67 74 73 86 84 87 85
59 59 58 54 64 67 72 74 79 84 89 96 96 95 95 90 81 83 77 74 80 83 86 84 79 72 67 66 67 94 86 77 78 83 84 86 88 90 85 90 89 84 88
62 62 62 62 65 64 73 79 83 93 96 96 96 95 95 87 91 88 73 65 61 80 84 80 81 70 67 68 73 77 73 71 89 94 95 95 95 96 96 86 89 84 85
65 66 66 65 65 68 84 96 96 96 96 96 96 96 95 90 90 88 84 72 64 62 69 79 73 67 62 67 64 68 64 88 90 88 93 96 96 95 95 97 96 86 88
68 71 69 70 77 88 95 96 96 96 96 95 94 93 93 93 95 94 93 91 75 65 60 70 68 72 67 73 69 74 85 90 92 94 96 96 94 98 98 96 98 97 96
75 72 72 76 95 96 95 96 96 94 94 96 94 94 96 96 93 90 92 95 90 77 75 83 86 88 89 91 92 92 94 95 95 97 97 97 95 94 91 93 94 93 94
79 74 84 95 96 96 96 95 95 85 84 83 83 88 88 88 88 80 82 84 90 68 85 95 94 94 96 97 97 96 97 89 96 97 96 96 95 94 90 91 90 93 90
78 82 96 96 96 96 96 96 97 86 83 81 83 87 88 91 91 84 84 80 71 69 94 97 96 94 92 92 92 97 96 96 94 97 96 97 93 92 92 90 90 87 86
82 81 95 97 97 97 96 96 96 97 97 96 91 91 91 90 94 94 96 94 94 96 97 97 98 98 95 92 92 94 94 93 94 96 94 94 95 92 92 92 91 88 90
85 90 97 97 97 97 96 96 97 96 97 97 96 94 91 92 93 91 96 96 97 97 97 97 97 97 97 97 97 96 92 90 93 96 94 92 91 90 91 90 92 89 88
84 85 96 97 97 96 96 97 96 96 96 97 96 97 96 96 96 96 96 96 96 96 97 97 97 97 96 96 97 97 96 96 97 97 98 96 94 91 91 92 91 91 89
88 92 97 96 97 97 97 97 97 97 97 97 97 94 95 96 96 96 93 94 96 96 96 97 97 97 97 97 95 95 96 97 98 98 98 98 98 98 95 93 90 88 90
89 96 96 97 97 97 97 97 97 97 97 97 97 96 96 96 96 88 89 88 86 88 96 96 96 97 97 97 97 97 97 97 97 98 97 97 97 96 94 91 88 90 87
91 96 96 96 97 97 97 97 97 97 97 97 97 96 96 97 92 87 87 84 81 79 79 87 95 96 96 97 96 97 98 97 95 98 98 96 95 94 92 90 88 91 92
91 96 97 97 97 97 97 98 97 97 97 97 97 96 97 97 90 88 86 82 79 75 74 82 86 96 96 96 96 95 97 97 97 98 96 97 97 96 93 93 90 89 91
93 97 97 97 97 98 97 97 97 97 97 97 96 96 96 88 86 85 83 85 84 78 77 80 95 96 97 96 95 96 98 98 97 98 98 96 96 93 90 91 90 90 89
93 94 96 97 97 97 98 98 98 97 97 97 97 97 92 90 85 83 80 84 84 80 77 78 93 96 96 96 94 96 97 97 98 98 97 92 92 90 90 90 89 90 91

GFSGL_sfc_rhum_057.txt.gz
RH
41 44 47 50 52 58 62 63 65 67 59 55 57 56 56 56 56 59 60 60 63 63 62 61 60 58 60 60 70 70 67 71 70 56 64 70 88 91 86 92 87 92 89
45 48 52 56 59 63 64 63 63 60 55 55 56 58 57 56 56 56 60 59 63 65 64 66 66 56 62 60 61 62 71 76 87 79 81 91 93 92 90 92 85 78 89
49 55 58 58 60 62 62 61 60 57 55 56 57 59 58 55 53 51 54 59 61 62 63 66 64 59 62 67 64 62 61 60 82 90 87 91 89 96 96 96 96 96 87
54 59 62 63 64 63 60 63 58 56 58 59 58 54 51 52 52 52 55 59 59 59 64 66 63 63 68 69 71 76 76 89 86 91 90 91 97 96 96 98 98 98 99
59 61 59 60 64 65 66 60 58 59 60 58 54 54 54 55 55 58 59 63 69 71 69 67 72 71 73 77 71 76 76 85 92 93 93 90 98 100 99 98 96 99 98
61 61 62 60 60 61 62 62 62 56 50 53 56 58 62 60 70 76 81 82 81 82 84 75 72 81 85 73 67 71 79 84 87 91 91 94 92 94 95 98 98 97 99
65 65 63 61 65 63 62 63 56 54 56 59 63 68 74 73 80 82 84 89 89 86 89 90 88 73 81 80 81 77 72 68 74 88 93 92 94 90 91 92 96 94 97
71 70 66 66 64 63 64 65 59 60 65 70 74 72 74 74 85 90 89 91 93 87 87 89 89 87 86 85 88 85 87 86 85 89 94 82 80 83 87 83 92 91 86
67 68 66 63 65 67 70 64 64 67 72 74 77 84 89 90 92 91 86 90 94 92 86 82 88 87 85 75 78 91 89 85 76 80 87 87 78 82 88 94 96 92 96
65 64 65 64 69 74 71 68 66 69 82 94 95 96 97 96 94 89 85 91 96 91 89 86 79 79 83 76 81 85 90 89 91 82 89 88 76 78 78 84 85 87 96
66 66 68 70 76 72 65 66 76 94 96 96 96 94 90 91 91 89 81 88 94 95 92 88 83 77 70 69 68 86 88 85 87 88 91 96 95 97 97 93 91 80 94
70 74 76 77 70 60 69 82 95 96 97 96 96 91 85 84 82 81 80 80 81 95 91 82 83 76 72 70 71 83 78 78 94 94 94 98 97 97 97 94 91 92 84
78 80 79 61 60 66 79 95 96 96 96 95 91 92 89 83 87 88 90 85 87 92 82 80 80 76 71 74 76 71 73 87 93 93 94 94 91 88 92 93 95 95 93
85 83 73 62 70 70 83 96 96 96 96 96 96 96 96 92 92 90 90 95 84 85 84 82 78 76 77 78 81 91 96 96 90 89 88 95 97 96 95 97 96 98 98
86 86 76 74 76 85 89 97 97 95 94 95 96 95 97 96 95 86 88 94 94 84 91 90 95 93 94 91 92 96 97 97 96 94 94 95 96 96 96 98 98 89 98
91 74 74 82 83 90 96 96 96 93 87 87 84 88 91 92 94 92 89 81 78 72 87 91 94 94 93 94 93 93 92 88 94 95 95 95 96 97 98 99 98 97 97
87 78 82 83 91 97 96 96 97 95 96 95 90 85 89 85 95 96 96 96 95 90 96 95 92 93 94 94 95 95 95 94 94 97 96 96 97 96 91 86 88 98 96
80 82 85 90 97 97 97 96 97 96 97 96 91 94 92 77 81 92 96 96 96 96 98 98 95 92 98 97 96 96 96 96 98 98 98 98 96 83 89 88 84 86 84
89 89 84 93 96 97 97 96 96 96 97 97 96 96 81 74 74 77 82 96 97 97 97 98 99 98 97 97 97 97 92 88 97 99 99 98 96 91 93 92 90 89 84
90 86 83 97 97 97 97 97 97 97 97 97 97 97 86 82 85 88 95 96 96 97 97 97 99 99 99 99 97 97 98 91 89 96 98 98 97 93 89 92 89 95 95
94 88 85 96 97 97 97 97 97 97 97 97 97 91 74 88 86 85 86 96 97 97 97 97 98 99 99 99 98 97 96 97 92 87 79 80 85 85 87 92 90 91 94
89 90 96 97 97 97 97 97 97 97 97 97 97 87 78 87 87 86 87 96 97 98 97 99 99 99 99 99 99 98 98 98 97 96 91 88 85 94 95 92 92 92 91
91 90 95 97 97 98 97 97 97 97 97 97 94 92 88 88 88 89 87 96 97 97 97 97 97 97 99 99 98 98 98 98 96 97 94 91 88 93 91 90 91 92 92
88 92 97 97 97 97 97 97 97 97 97 96 90 90 95 93 90 87 87 88 97 96 96 97 97 98 98 99 99 97 94 93 96 96 95 94 94 93 92 91 90 89 90
88 92 97 98 98 98 97 97 97 97 97 96 90 93 89 96 90 85 82 90 97 96 97 97 97 99 99 99 97 96 96 95 94 94 96 94 92 93 90 88 86 90 90
88 89 97 97 98 98 98 97 98 97 97 97 97 96 97 92 88 82 81 85 96 96 97 96 97 97 97 96 96 98 97 96 94 92 95 95 93 92 91 89 84 87 87

GFSGL_sfc_rhum_060.txt.gz
RH
44 47 50 52 55 58 63 63 63 65 67 64 58 59 60 61 60 62 62 62 65 64 65 67 68 66 69 69 74 72 73 74 81 71 70 67 83 84 71 80 87 91 92
48 51 54 58 60 64 66 64 62 62 60 60 58 59 60 61 61 62 62 55 57 56 60 65 67 59 68 70 73 73 71 78 86 79 74 84 89 86 79 84 65 64 90
52 57 61 62 64 65 63 60 60 60 62 59 59 62 62 63 62 57 52 54 55 53 55 60 62 62 68 69 68 69 73 65 76 89 86 95 93 95 90 92 93 92 87
55 62 65 65 65 64 62 61 61 62 62 62 62 62 61 56 55 55 54 56 57 57 58 60 60 61 64 67 66 76 77 88 88 90 88 93 96 92 93 88 92 99 94
60 64 64 66 68 69 65 63 63 63 62 62 58 52 54 55 54 58 63 69 73 73 69 62 64 67 72 72 68 74 79 89 92 92 92 92 89 93 94 92 91 96 98
64 66 65 63 63 64 65 65 64 65 65 56 56 58 62 60 72 77 78 84 87 91 94 89 83 83 81 74 71 76 89 88 91 92 90 93 89 88 91 93 92 94 92
68 69 64 64 66 67 64 65 68 70 63 61 63 66 73 73 79 80 82 86 87 89 92 93 91 83 82 78 87 76 69 66 71 87 96 92 89 84 90 93 99 97 97
73 71 68 68 68 66 68 72 72 68 66 67 71 73 80 81 90 88 86 87 89 86 86 92 93 90 84 89 87 90 90 90 87 83 95 89 85 84 90 88 92 95 95
70 73 69 66 70 71 77 73 70 68 69 74 83 93 96 92 90 84 80 84 88 89 85 89 90 89 85 84 89 92 93 91 77 74 71 76 79 78 82 96 97 97 95
69 68 67 69 74 78 73 74 66 69 84 93 95 94 95 90 85 86 81 84 91 91 88 91 87 89 87 83 84 91 93 93 90 86 86 80 78 85 76 88 93 94 94
68 69 71 74 78 71 67 62 73 82 94 96 96 92 90 86 86 78 80 86 92 93 93 94 88 85 79 70 69 91 90 82 84 89 89 96 96 96 94 92 92 85 89
74 75 76 78 71 58 64 73 79 91 97 96 96 92 84 83 80 82 85 83 84 91 96 93 86 84 75 69 67 66 68 76 94 95 94 94 93 98 99 94 92 90 86
79 81 83 81 70 66 74 87 96 96 96 96 87 96 96 82 84 88 87 84 85 94 89 87 82 77 72 74 77 79 79 90 96 96 96 96 95 92 99 96 96 94 93
88 88 85 70 72 69 76 88 96 96 96 96 96 96 96 86 94 93 89 92 88 91 80 86 82 78 73 80 87 90 97 96 94 93 93 95 93 95 94 95 97 98 98
90 85 67 65 71 79 83 93 97 96 96 97 95 96 97 96 92 94 95 92 92 81 91 91 94 95 95 95 95 95 97 96 96 94 96 97 92 89 90 94 96 96 98
95 70 68 71 80 87 95 94 91 94 93 92 84 92 90 84 76 85 96 96 90 82 87 93 95 96 94 95 94 97 96 95 96 91 90 88 90 94 98 98 96 93 95
93 72 82 80 86 92 96 96 97 95 96 94 90 91 76 72 74 82 92 97 97 96 96 95 97 97 94 95 95 94 93 93 95 92 93 95 94 94 97 96 91 90 90
84 82 91 90 93 97 97 97 97 97 97 96 96 96 79 70 70 79 88 95 96 96 99 99 99 97 90 95 96 95 95 96 96 96 96 96 97 96 96 85 85 84 94
83 88 85 89 92 97 97 96 97 97 97 97 97 96 83 70 71 73 82 97 97 97 97 98 99 99 99 98 96 92 96 96 96 97 98 98 97 80 93 87 90 80 78
92 84 79 92 96 96 97 97 97 97 97 97 97 95 90 81 84 84 94 96 96 97 97 99 99 99 99 99 98 97 97 96 89 98 97 98 98 95 93 93 89 90 82
94 92 84 94 96 97 97 97 97 97 97 97 97 90 73 87 93 96 96 96 97 97 97 99 99 99 99 99 99 98 96 96 92 93 97 97 94 90 93 93 89 92 93
98 87 91 97 97 97 97 97 97 97 97 97 92 86 82 92 92 90 98 98 97 98 98 99 98 99 99 99 99 99 98 97 96 92 83 75 79 80 82 88 92 91 96
86 88 91 96 96 97 97 97 97 97 97 92 89 91 92 97 96 86 97 97 97 97 97 97 98 98 99 99 98 98 97 97 97 96 90 87 84 83 84 89 90 93 94
86 86 93 96 97 97 97 97 97 98 97 97 98 97 97 94 90 85 96 96 96 96 97 97 98 99 98 98 98 98 97 96 94 95 95 91 88 87 84 93 93 91 92
88 89 94 97 97 97 97 97 97 97 97 97 96 97 97 88 84 85 96 97 97 96 97 98 98 99 99 99 98 97 97 97 94 94 97 92 86 84 90 91 90 89 88
84 83 95 97 97 97 98 97 97 97 97 96 96 97 94 86 84 92 92 96 96 96 97 97 98 100 97 96 96 97 97 95 95 93 96 96 94 92 91 90 89 91 93

GFSGL_sfc_rhum_063.txt.gz
RH
33 34 35 36 38 38 40 42 43 43 42 44 46 48 49 49 48 48 50 51 53 52 52 55 55 53 53 52 54 54 55 55 63 54 46 42 46 50 45 41 42 40 39
37 37 37 40 42 41 41 40 39 42 44 46 48 51 50 50 49 50 53 51 53 54 53 54 56 48 56 56 58 59 57 54 62 64 52 50 49 53 49 51 44 35 37
38 39 42 43 42 43 40 40 40 42 45 48 50 52 52 52 51 50 50 52 53 51 52 53 53 52 55 58 61 64 65 58 58 67 68 63 60 53 63 59 60 59 47
41 44 45 42 44 44 45 45 44 46 49 50 51 53 54 52 51 51 53 53 54 54 54 57 56 57 57 57 57 61 60 68 68 71 75 77 74 65 70 63 65 63 63
43 44 45 45 45 47 47 46 47 50 51 52 54 54 52 54 53 60 65 69 70 72 72 72 71 68 74 68 59 60 63 71 79 82 83 78 76 74 71 67 75 67 62
43 46 48 48 48 50 50 51 53 56 55 56 57 56 60 58 71 78 79 81 81 85 90 87 85 89 87 86 86 80 84 82 86 89 88 84 73 72 73 79 81 81 76
46 45 46 49 51 52 53 56 61 61 60 61 60 61 67 68 80 84 81 80 84 86 87 86 85 85 88 85 91 83 77 76 88 91 93 86 88 66 69 73 77 81 80
47 46 48 51 53 54 58 61 61 60 63 62 64 70 80 82 92 86 80 78 79 77 76 80 85 87 88 92 91 90 80 76 75 70 81 85 79 74 73 71 76 83 81
48 48 51 51 56 60 64 63 62 66 63 67 74 87 91 88 86 82 78 82 83 87 85 85 87 90 86 88 92 92 89 82 68 71 68 72 74 74 80 85 88 94 93
50 52 53 54 61 66 67 66 65 63 71 77 84 88 89 84 85 87 77 81 90 92 81 82 88 88 89 86 87 91 88 78 71 69 67 70 72 77 73 79 81 92 93
54 56 57 60 65 67 66 63 67 76 81 91 92 89 89 86 89 78 76 78 87 83 87 90 93 87 82 80 76 80 73 66 67 70 71 82 86 81 77 81 83 88 93
59 61 61 64 66 63 68 68 67 82 94 85 95 86 94 85 77 78 78 76 82 90 93 94 85 81 75 68 64 64 67 72 80 76 81 91 93 93 87 82 91 90 90
64 64 65 66 58 59 67 75 94 96 92 96 92 94 94 83 77 82 84 84 88 88 81 81 79 75 71 68 74 75 74 84 79 92 87 80 94 92 92 97 97 95 94
67 66 67 58 61 63 66 84 96 96 96 96 96 96 96 89 88 89 88 91 94 85 90 80 78 77 75 77 76 84 86 90 91 80 80 80 91 96 93 90 97 97 93
67 66 59 59 61 68 75 90 96 96 97 97 96 97 97 96 88 83 86 92 96 90 78 92 83 78 79 76 80 83 89 93 90 87 80 84 84 93 92 92 94 89 83
70 65 63 72 75 82 94 94 96 95 92 90 92 92 84 70 66 67 74 84 97 97 86 87 86 84 83 82 83 86 95 96 94 84 84 80 92 94 91 88 93 88 82
72 72 75 79 85 93 96 96 96 95 95 93 88 77 74 66 67 69 77 91 97 97 99 99 95 88 87 84 83 82 96 96 88 83 83 81 89 78 81 81 82 80 83
73 83 78 83 92 96 97 96 96 97 97 96 96 78 80 68 70 74 83 89 96 96 99 99 99 97 96 95 79 81 83 90 93 85 78 84 82 77 80 80 79 76 76
77 80 78 84 92 96 96 96 96 96 96 97 96 82 80 72 72 75 78 95 96 97 98 99 99 99 99 98 95 90 82 80 86 85 81 78 77 76 76 75 75 81 80
79 79 82 86 94 96 96 96 96 96 96 96 88 87 85 77 82 86 94 95 96 96 97 97 99 99 99 99 98 97 92 81 78 80 81 83 80 69 70 74 81 82 80
85 84 82 88 96 96 97 97 97 97 97 93 85 80 75 81 97 95 96 96 97 98 97 97 98 99 99 99 98 98 97 92 82 77 80 81 82 84 74 83 85 82 81
88 81 82 94 96 97 97 97 97 97 97 98 91 83 83 83 96 96 96 96 96 96 96 98 97 97 98 98 98 97 97 96 94 87 85 80 78 79 82 78 86 85 84
77 82 84 92 96 97 96 97 97 97 97 97 96 97 96 96 95 94 95 96 96 96 96 97 97 98 96 94 91 97 97 96 95 91 82 72 78 81 81 73 88 86 84
80 82 84 95 97 97 97 97 97 97 96 96 96 97 94 84 94 95 95 96 96 96 97 97 97 98 97 97 96 96 96 96 92 92 92 75 75 79 80 81 79 86 76
82 85 85 98 98 97 97 96 97 96 96 96 96 94 83 82 94 95 96 96 96 96 97 98 98 99 99 99 98 96 97 98 93 92 92 90 78 79 79 81 81 80 83
77 77 88 98 97 98 98 97 97 96 96 95 98 86 84 91 95 96 96 96 96 97 98 98 99 100 98 96 96 98 98 98 95 92 91 94 88 87 82 78 78 83 81

GFSGL_sfc_rhum_069.txt.gz
RH
22 24 25 25 24 25 27 27 27 26 24 24 25 27 27 28 28 31 34 37 40 42 42 46 49 48 54 54 56 57 59 61 69 59 52 47 44 44 38 37 39 40 43
26 26 25 26 27 27 26 25 23 23 24 23 23 24 25 28 30 34 38 39 43 46 46 50 51 46 54 53 54 56 57 55 64 67 58 56 52 48 45 44 38 31 38
26 26 27 29 30 29 27 24 23 23 23 23 24 27 29 33 36 38 41 44 45 45 48 52 52 52 53 53 55 58 60 56 60 64 64 58 56 52 52 49 47 44 36
28 29 32 30 31 30 26 26 25 24 25 26 28 32 36 38 39 44 48 52 53 51 51 55 56 59 60 61 62 60 56 65 67 70 71 67 64 58 58 60 60 53 48
28 30 31 30 29 26 28 28 27 27 28 30 33 36 39 46 47 52 57 63 67 68 68 66 68 70 74 71 66 66 65 70 71 73 72 70 71 67 66 60 63 57 51
28 30 31 28 28 30 30 29 29 31 32 33 36 41 52 50 61 65 67 76 79 83 84 77 74 72 72 72 74 72 76 93 91 78 77 78 68 63 61 62 64 69 65
30 28 26 27 29 30 30 30 35 37 35 38 42 50 53 56 66 69 71 76 81 82 80 76 71 64 69 64 71 74 73 74 80 93 93 89 74 54 57 62 66 64 65
28 27 27 28 31 32 32 36 36 37 42 49 54 56 63 64 71 71 75 79 78 71 74 69 73 72 73 77 82 84 83 79 78 75 89 91 87 87 74 67 67 66 64
29 29 30 31 34 36 39 39 39 44 52 58 59 62 64 65 79 78 73 82 76 73 75 69 74 83 88 78 81 92 90 88 78 78 77 77 82 84 88 93 91 92 86
32 33 32 33 36 37 39 41 43 49 55 58 60 67 75 81 78 76 77 83 83 86 75 74 78 86 82 73 81 93 97 93 88 83 75 71 74 83 81 82 77 84 84
34 34 36 36 35 34 38 40 49 54 55 70 73 72 72 76 84 79 81 76 80 81 88 81 83 87 86 66 69 90 91 84 81 83 75 73 66 70 80 80 76 76 81
37 38 38 35 32 31 39 47 50 56 76 79 82 86 84 86 84 81 74 67 68 77 86 81 83 88 82 67 69 71 75 75 79 76 78 70 75 74 65 67 72 75 71
39 40 37 35 31 33 46 57 64 74 84 87 94 96 96 95 81 81 66 63 65 74 71 76 76 85 76 70 68 70 69 77 82 82 81 80 76 77 70 77 77 78 76
40 39 38 35 36 40 54 59 77 88 93 96 96 96 96 93 88 77 66 74 77 74 78 81 94 81 77 74 73 71 74 81 85 81 82 82 81 88 87 90 91 88 90
41 41 39 36 43 56 61 68 90 92 95 97 96 94 91 93 74 70 68 76 84 74 83 94 96 84 80 82 77 80 80 84 90 92 87 83 87 88 84 88 92 92 91
46 44 41 44 57 66 74 74 72 88 89 87 80 77 73 67 66 79 73 73 72 70 84 94 96 94 90 83 79 79 85 93 93 94 85 90 93 94 93 93 92 92 93
50 46 48 53 66 77 82 93 96 95 96 92 80 72 69 67 68 71 76 80 70 75 89 88 93 97 97 87 86 84 96 96 94 97 87 84 78 90 91 92 91 91 92
52 57 53 62 76 82 87 92 96 96 96 95 80 79 75 77 76 80 75 79 80 76 84 89 90 91 95 96 94 92 91 93 94 93 78 81 86 85 89 92 94 92 92
53 53 58 72 79 80 83 85 96 96 96 96 92 80 76 83 75 76 78 90 94 90 86 87 88 91 91 92 93 96 93 90 92 86 92 90 83 85 76 78 79 82 81
55 66 66 74 80 80 84 93 96 96 96 96 96 90 90 93 79 82 84 90 91 90 88 89 89 88 91 92 91 93 92 89 87 85 85 80 75 68 68 70 71 71 76
64 66 65 80 81 86 88 94 96 96 96 96 88 93 82 78 94 94 92 93 97 98 98 97 97 95 89 90 90 90 91 93 88 88 79 73 65 70 70 70 71 73 72
61 62 68 83 84 90 95 90 96 96 94 93 91 88 77 77 90 95 96 96 96 97 97 97 97 97 91 92 88 87 85 92 91 87 86 71 69 66 73 75 77 77 73
57 62 72 82 86 89 93 96 93 87 86 84 87 77 80 84 88 93 96 96 97 97 97 97 97 95 89 89 86 88 88 83 90 90 93 74 70 61 77 75 78 78 75
60 66 75 80 91 94 96 97 90 81 78 77 79 83 89 92 92 95 96 96 96 97 97 98 97 97 94 91 87 85 83 77 84 91 85 79 71 69 77 78 72 70 74
63 68 76 82 92 97 97 96 94 83 80 79 81 85 89 94 95 96 96 97 97 97 98 99 98 98 99 97 89 78 79 87 82 88 87 78 63 60 70 77 72 72 76
65 63 69 81 90 92 97 97 96 95 87 82 88 90 95 96 96 96 96 96 97 97 98 98 99 100 99 98 96 94 86 87 83 86 88 85 71 72 66 70 72 75 74

GFSGL_sfc_rhum_072.txt.gz
RH
35 37 38 38 37 39 41 42 43 43 40 38 37 38 37 38 38 40 42 45 49 52 55 52 46 46 53 53 55 57 59 60 68 63 62 58 59 57 50 49 50 48 55
36 37 37 39 40 43 42 41 38 36 36 36 36 36 36 37 40 44 49 48 52 55 48 48 49 45 52 54 61 64 65 63 70 74 66 67 66 60 56 56 49 42 47
36 40 42 43 46 46 44 39 35 36 36 36 35 38 39 42 45 46 48 49 44 48 52 54 53 53 56 58 58 60 62 60 65 70 71 65 64 62 62 61 58 55 46
38 42 45 47 46 45 41 39 38 37 36 36 37 38 43 43 54 56 56 54 51 53 55 58 59 59 61 62 64 66 63 67 67 69 70 70 67 67 71 70 71 67 65
39 42 46 45 41 40 41 41 40 39 37 38 38 40 44 54 48 52 54 62 66 68 70 70 70 72 75 72 81 84 83 73 78 78 75 75 74 71 77 72 73 68 64
41 44 43 40 40 44 42 43 42 44 45 44 44 49 60 50 56 60 64 74 76 82 88 86 80 75 78 74 72 71 74 88 96 97 95 90 84 73 68 74 76 78 82
44 42 37 38 41 43 43 43 47 49 50 51 64 62 59 58 64 68 69 74 84 89 89 88 77 68 79 74 74 72 73 74 72 81 94 95 93 83 73 75 73 74 74
44 39 39 41 43 45 47 50 51 50 53 67 60 55 60 59 66 68 70 79 83 78 83 81 82 83 80 76 78 83 85 82 79 76 86 88 89 88 87 80 67 70 77
42 42 44 44 46 49 52 55 53 52 66 54 52 58 62 66 74 74 73 80 85 88 83 81 85 80 79 71 82 92 85 85 72 75 83 76 81 81 84 92 94 91 91
44 47 46 47 50 51 53 53 52 65 56 53 56 62 73 77 76 78 78 87 90 92 81 79 76 73 70 69 91 93 89 90 97 95 92 88 82 86 80 85 80 93 91
46 48 49 49 51 50 50 50 67 62 55 62 75 73 71 73 85 84 85 78 89 82 83 85 81 73 70 70 87 86 87 87 90 91 87 83 83 89 94 85 86 88 89
50 52 52 52 46 39 50 68 67 61 75 82 84 82 78 86 85 86 73 69 64 76 85 85 80 74 72 74 87 73 69 73 90 94 97 97 96 95 97 90 92 87 81
53 56 55 51 47 45 66 69 68 75 85 88 89 96 96 89 81 88 75 75 67 74 76 74 75 78 93 89 81 67 75 93 94 94 94 95 93 92 89 89 88 88 87
58 58 56 56 50 60 65 64 78 90 96 94 96 97 96 90 84 83 80 94 76 80 84 86 77 93 95 83 87 81 83 92 96 96 97 91 94 97 95 95 96 91 94
60 58 58 55 62 71 64 73 84 94 90 94 96 97 96 93 84 73 76 76 81 84 82 87 88 96 94 89 85 84 91 86 90 90 95 95 94 95 92 92 92 91 92
64 62 63 64 72 70 78 78 72 76 79 82 81 82 79 78 78 80 74 89 73 70 94 91 90 96 96 94 91 90 93 91 93 94 95 92 92 95 90 90 92 90 91
70 66 70 69 74 80 83 88 96 84 82 86 87 84 76 74 78 83 73 76 73 77 98 96 91 92 96 95 95 91 93 92 92 96 96 92 93 93 94 93 94 93 92
71 64 76 82 84 87 88 92 95 96 96 95 93 83 75 78 82 75 76 81 90 86 92 94 89 88 91 94 93 91 93 92 94 94 94 90 91 88 93 93 94 94 94
73 77 81 80 86 81 85 96 92 94 96 96 94 84 78 78 78 73 75 96 97 98 97 95 91 89 88 90 90 91 88 95 96 94 93 90 92 94 94 94 93 93 94
76 66 70 83 83 86 92 96 98 94 95 96 93 97 83 93 87 90 94 97 97 97 97 95 94 93 90 90 92 91 89 91 92 93 95 92 88 81 81 82 85 90 96
84 81 68 85 85 88 96 97 96 98 94 94 94 83 78 87 96 97 97 97 97 97 97 97 97 97 95 91 90 90 86 86 90 94 91 87 78 83 85 83 83 86 94
87 82 84 83 86 93 97 97 96 97 93 87 91 82 78 87 97 97 97 97 97 97 97 97 97 97 97 94 89 88 87 84 90 92 92 90 81 82 87 89 88 89 91
80 81 78 76 84 92 93 96 95 97 89 84 86 88 90 96 96 96 97 97 97 97 97 98 97 96 95 93 88 89 90 87 88 93 97 94 81 78 88 90 87 87 87
81 84 74 83 87 95 96 97 92 87 86 89 95 96 97 96 97 97 97 97 97 97 98 99 98 98 97 94 89 87 85 83 84 92 91 94 85 77 83 86 86 83 88
84 83 72 84 90 98 98 97 92 92 88 92 96 94 96 96 96 96 97 97 97 97 98 99 98 99 99 97 90 86 84 88 84 88 92 90 84 67 80 85 83 89 88
85 83 78 85 91 98 98 96 91 88 87 94 96 96 97 97 96 97 97 97 97 97 98 98 99 100 100 98 91 86 85 87 87 87 91 94 87 75 77 72 79 91 89

GFSGL_sfc_rhum_075.txt.gz
RH
40 42 41 42 43 46 48 49 48 47 42 41 41 43 42 43 43 45 47 49 53 56 61 66 65 63 53 48 54 55 57 59 67 61 68 66 68 64 56 55 58 62 61
41 41 43 47 49 51 52 48 43 40 42 41 41 42 42 43 44 48 52 54 58 56 63 56 52 48 51 52 58 59 62 62 68 74 66 68 72 64 61 64 56 47 52
43 45 47 48 50 55 50 44 42 43 43 43 41 43 43 45 47 54 63 66 66 59 53 48 51 54 58 59 58 64 66 61 67 74 74 68 68 69 70 67 65 62 53
45 48 49 53 53 48 44 44 44 44 46 45 44 44 47 44 52 62 63 65 65 59 59 61 61 63 67 71 68 65 63 68 68 72 78 74 70 65 66 72 76 74 68
45 49 52 50 44 44 47 48 48 47 45 48 48 48 58 61 52 59 59 55 63 66 67 67 69 70 78 77 84 90 93 94 96 97 96 89 89 77 77 72 79 76 74
51 50 47 42 44 48 49 49 50 51 53 53 56 66 70 55 60 61 61 70 75 80 88 86 84 79 82 81 73 74 73 87 88 96 97 97 94 88 76 77 79 86 91
53 48 43 45 48 49 49 51 54 57 58 59 68 71 70 58 61 65 67 71 83 90 90 89 84 71 83 77 78 73 72 72 70 81 89 94 95 90 84 80 79 81 78
54 48 47 49 50 51 54 56 60 61 61 66 72 66 54 55 64 69 70 76 82 82 80 85 90 90 86 83 82 83 81 80 80 81 88 88 85 86 87 82 79 78 74
52 51 51 51 54 56 59 62 62 64 69 74 66 57 58 61 74 72 73 85 89 91 82 87 85 83 82 72 74 82 86 84 77 78 73 74 79 79 87 91 96 95 92
53 52 53 54 56 59 62 64 62 75 71 65 64 62 72 77 76 77 78 87 91 88 84 82 73 71 69 67 72 81 91 95 90 88 87 88 90 85 84 85 84 90 92
52 53 55 57 59 61 59 62 79 78 75 79 79 78 77 75 78 82 75 80 85 85 89 82 81 74 71 73 70 79 83 89 87 89 94 90 91 94 95 95 89 85 92
54 57 59 61 56 48 67 79 79 81 88 88 80 80 78 80 87 83 73 68 69 94 92 84 84 77 71 73 85 83 87 81 96 97 98 97 96 96 94 96 96 89 83
59 63 64 61 59 59 76 80 77 86 89 84 84 89 95 93 86 78 76 75 84 83 79 78 78 75 75 96 93 81 83 94 97 98 97 98 97 96 94 98 97 94 91
65 68 66 67 66 71 73 71 82 87 94 96 93 96 96 96 88 83 89 94 94 95 82 86 77 70 76 84 88 87 86 89 89 83 91 97 96 95 92 95 97 98 94
70 69 69 69 73 80 77 81 86 89 94 92 96 96 97 96 94 78 78 85 86 85 80 92 94 76 86 82 84 89 90 92 94 93 93 93 93 96 95 95 90 91 95
73 73 76 79 82 82 87 82 73 74 73 77 78 77 83 86 78 79 79 75 73 70 91 97 93 87 89 89 82 84 86 91 91 92 93 96 95 95 95 94 92 94 91
77 76 83 81 88 91 87 90 97 84 72 72 78 77 78 72 69 72 72 73 74 81 96 97 97 89 88 88 90 93 93 85 90 95 95 94 94 93 92 93 94 93 89
79 73 88 89 93 91 91 93 97 95 96 86 78 77 76 73 76 73 72 82 90 90 97 97 96 92 87 87 89 90 91 90 96 96 93 95 95 94 94 96 96 95 93
82 85 85 88 87 80 89 95 96 95 98 90 86 78 74 80 88 72 74 96 97 97 97 97 88 90 92 88 86 90 87 89 96 96 94 95 95 96 94 96 94 94 93
84 74 74 86 87 88 90 96 97 94 96 90 88 88 91 96 85 87 89 96 97 97 97 97 97 96 94 93 90 90 90 85 96 96 94 94 92 90 91 94 95 96 94
93 91 73 88 88 89 97 96 95 95 95 91 91 85 82 92 96 96 96 97 97 97 97 97 97 97 97 95 93 90 89 84 89 96 92 92 88 90 89 86 92 96 95
94 89 88 82 85 91 98 93 93 92 87 90 95 89 82 89 96 97 97 97 97 98 98 97 97 97 97 97 94 90 87 85 87 95 93 92 87 90 91 90 94 91 92
88 90 76 73 87 91 98 94 94 91 92 90 94 96 91 95 96 96 97 97 97 97 97 98 97 97 97 94 92 91 91 89 85 90 97 95 90 90 92 92 90 90 96
89 91 74 78 88 91 94 94 91 87 84 90 96 93 97 96 97 97 97 97 97 97 98 98 98 98 98 91 90 89 87 84 86 90 95 93 93 85 89 90 90 87 89
92 92 88 86 93 96 92 90 92 92 90 93 95 96 96 96 96 96 97 97 97 98 98 98 98 99 99 99 89 88 87 87 83 85 92 91 92 81 82 91 90 91 86
91 87 78 85 95 94 93 94 94 92 92 90 96 96 96 97 96 97 97 97 97 97 98 98 99 100 99 98 94 88 85 85 90 85 90 94 95 87 82 87 89 92 88

GFSGL_sfc_rhum_078.txt.gz
RH
42 45 45 48 50 53 54 53 50 47 44 43 44 46 46 47 46 49 51 52 55 58 61 66 64 67 70 68 66 58 56 57 66 60 61 64 76 66 58 60 64 66 65
46 47 49 50 52 56 55 50 45 44 45 46 46 47 47 47 49 52 53 53 62 70 70 69 63 46 48 59 59 57 59 57 65 71 65 70 80 70 65 64 60 51 58
47 49 50 52 56 57 51 47 45 46 48 49 48 49 49 51 54 57 60 69 72 70 66 64 63 61 58 54 61 66 69 64 68 74 74 70 71 71 74 73 69 69 60
48 50 53 57 53 49 48 49 49 49 51 50 50 51 54 56 64 66 66 68 66 62 62 62 60 64 68 72 69 71 72 75 74 78 84 83 79 72 75 77 79 81 73
52 53 54 52 48 49 52 51 51 52 50 53 54 55 59 66 55 60 59 63 64 66 69 70 73 72 78 75 81 87 91 94 96 97 97 96 94 90 83 74 76 72 76
55 55 52 48 49 52 52 53 54 56 57 57 58 61 72 60 58 58 56 71 76 79 84 81 86 79 83 80 74 73 78 91 96 96 97 97 93 92 87 81 79 80 87
57 55 51 50 52 53 54 56 58 61 63 65 66 70 76 69 62 60 62 69 80 88 88 86 82 74 82 88 87 80 76 75 72 78 88 88 88 83 80 88 86 81 80
58 56 53 53 55 56 59 61 65 68 69 70 74 74 71 63 63 65 66 74 82 83 86 86 90 89 85 84 85 87 84 81 79 76 84 87 84 84 87 82 81 76 72
56 57 54 56 59 61 64 66 69 70 77 79 70 73 74 71 74 71 70 79 89 87 87 84 90 87 84 71 72 79 81 80 72 70 68 76 75 76 86 93 95 95 94
58 56 56 59 62 64 67 71 68 83 77 73 72 75 80 81 77 76 74 84 86 93 79 80 85 77 70 66 71 83 93 85 84 82 84 85 83 88 78 88 86 96 95
59 58 60 62 65 65 68 68 83 82 82 88 86 81 67 75 77 76 79 78 84 85 92 92 90 77 72 71 75 78 83 79 78 79 85 92 94 92 95 95 87 88 90
63 61 64 67 60 57 71 81 81 86 93 90 83 79 73 76 80 79 80 73 72 85 90 93 89 79 71 68 70 88 95 84 93 98 99 98 98 95 90 93 96 92 87
63 67 71 67 67 68 78 83 85 88 92 86 91 92 83 79 83 85 80 78 83 92 90 87 78 73 69 72 77 92 94 93 93 96 96 97 97 96 96 95 97 96 91
69 74 74 75 76 77 78 80 90 92 90 96 96 94 96 88 90 87 90 95 87 84 86 89 85 73 67 68 73 83 86 90 93 98 97 93 93 98 98 95 99 96 93
76 77 78 79 85 86 85 88 88 91 90 89 86 94 97 96 92 81 77 83 83 79 75 96 96 94 69 73 79 78 82 87 94 95 92 93 92 93 94 93 91 96 97
78 80 85 89 89 92 93 84 74 74 76 75 70 72 85 82 78 70 75 68 72 70 90 97 98 97 89 80 72 76 80 80 84 83 91 96 96 94 94 96 93 93 94
84 85 90 85 94 95 88 92 94 82 72 74 76 71 70 68 68 82 74 68 74 78 96 92 89 90 92 88 79 74 84 90 83 91 95 96 94 94 94 93 95 94 93
87 75 91 93 94 92 93 93 91 97 94 86 80 75 71 72 80 69 70 78 89 90 97 97 96 85 83 92 85 74 78 85 89 92 94 95 95 93 94 96 96 97 96
84 91 93 94 91 84 91 93 94 88 86 85 85 78 76 83 78 72 74 92 98 97 97 97 97 97 90 90 86 76 80 81 87 96 96 96 94 97 96 94 96 96 96
91 78 78 90 90 91 93 94 87 89 88 87 89 92 92 97 87 85 86 96 97 97 97 97 97 97 96 95 93 88 85 85 93 97 96 94 94 95 93 94 94 95 96
95 92 78 90 92 92 98 98 96 90 91 93 90 88 82 92 93 95 97 97 97 97 97 97 97 97 93 97 96 92 85 84 86 98 96 92 93 93 90 95 96 95 95
93 94 92 76 80 92 91 95 89 88 89 91 92 89 81 87 95 97 97 97 97 97 98 98 97 97 96 95 97 93 87 84 85 97 93 91 93 90 90 86 94 96 94
93 92 88 74 82 87 90 82 83 90 92 93 92 91 90 92 95 96 97 97 97 97 97 98 97 97 96 93 93 93 92 82 87 87 94 92 93 93 92 90 90 96 94
94 92 93 85 92 91 88 89 89 87 86 89 91 91 97 97 97 97 97 97 97 97 98 98 98 98 97 92 87 90 89 83 80 89 93 94 95 93 94 93 92 94 92
93 92 92 95 98 93 87 86 91 91 91 90 92 96 95 92 91 94 97 97 97 98 98 98 98 99 99 98 88 88 87 87 81 86 93 90 94 86 90 93 90 92 93
93 93 93 96 94 89 92 92 93 91 91 88 96 95 93 92 95 97 97 97 97 97 98 98 99 100 99 99 97 88 85 85 86 82 87 91 94 90 88 92 89 90 90

GFSGL_sfc_rhum_084.txt.gz
RH
49 52 53 56 57 58 58 57 53 51 48 48 49 51 52 53 53 57 58 59 61 64 66 68 67 70 72 82 86 82 82 83 83 66 74 72 77 69 61 63 67 70 72
53 54 57 58 59 61 60 56 51 49 50 50 52 53 54 54 56 59 62 61 67 71 73 75 75 62 73 78 81 77 75 75 82 79 65 64 82 76 70 75 62 54 62
55 57 58 58 60 60 55 51 51 52 52 53 54 55 56 58 60 62 65 68 74 74 72 73 71 71 74 74 74 75 75 70 72 76 74 68 74 85 80 80 79 75 63
55 56 58 60 57 54 52 54 54 54 56 57 57 58 60 61 62 64 67 76 76 67 67 68 68 72 75 76 75 75 74 79 79 81 81 75 74 77 77 79 85 87 81
57 57 58 60 56 54 56 56 57 59 57 60 62 62 64 62 52 63 71 73 71 73 63 66 73 73 76 74 82 91 93 96 98 97 97 96 93 86 87 81 84 82 80
59 58 60 58 56 57 58 60 62 63 65 66 67 69 71 58 62 62 60 64 70 72 79 84 84 86 82 76 76 71 76 88 94 98 98 98 97 98 89 86 86 95 88
62 62 61 60 58 59 61 63 66 69 72 74 74 74 77 73 68 67 66 64 75 80 85 90 83 77 77 83 86 80 76 77 70 80 89 92 94 87 83 88 87 86 81
65 65 64 63 62 62 66 69 73 77 76 76 79 79 78 72 73 73 71 72 76 74 77 83 93 89 87 84 87 86 86 83 79 76 81 84 85 80 83 81 79 78 76
64 67 67 67 65 67 70 75 77 80 78 86 79 81 86 84 81 73 65 73 82 85 82 81 80 83 80 74 78 88 88 83 68 73 75 75 71 70 79 91 94 94 91
66 68 70 67 68 72 76 78 80 78 85 79 77 81 86 86 81 75 71 80 91 87 88 82 76 82 76 82 79 88 96 94 95 84 79 78 74 77 69 78 87 93 94
69 72 70 70 73 75 77 82 81 88 88 88 86 85 88 86 84 70 68 75 82 91 89 92 88 84 74 72 77 91 93 81 76 95 95 94 88 88 89 88 90 91 95
74 72 71 76 71 66 86 84 88 92 94 93 94 89 72 83 78 74 73 73 71 82 93 91 91 80 73 68 70 68 65 67 95 96 97 97 97 95 89 89 92 95 93
75 76 80 80 79 87 90 91 93 93 96 94 92 88 92 78 78 72 71 73 82 85 86 80 72 74 74 76 75 69 64 83 95 97 97 96 95 94 94 95 94 93 92
80 84 86 87 88 91 88 94 96 94 95 93 93 96 87 94 88 83 84 94 92 84 84 94 88 77 76 79 81 76 62 73 85 91 90 85 84 86 89 96 97 96 98
86 87 88 90 94 94 93 95 92 93 88 86 92 90 94 97 81 71 73 82 77 73 77 92 94 90 91 88 88 84 78 73 78 82 82 80 84 85 86 85 95 97 94
86 89 94 95 95 96 96 92 78 76 71 68 68 69 72 70 70 69 74 77 71 70 87 95 92 92 93 92 83 84 89 80 77 80 82 83 84 87 86 89 91 95 96
91 93 96 94 97 96 95 97 96 84 74 70 70 71 70 69 70 69 83 71 74 76 98 95 96 97 97 97 96 87 90 86 74 74 81 86 87 90 96 96 95 92 96
90 80 96 97 96 96 96 95 96 96 89 78 70 73 73 73 73 79 72 78 89 85 94 97 98 97 97 97 97 96 88 86 83 80 82 93 96 96 96 96 97 97 97
90 95 94 96 94 86 91 96 94 88 87 86 80 77 75 78 85 73 72 87 97 96 98 97 98 97 98 97 97 95 93 91 82 84 94 97 96 97 96 97 97 96 97
91 79 80 92 90 89 95 91 86 89 88 87 89 87 85 96 88 84 84 91 97 97 97 98 97 97 97 97 98 94 94 89 78 86 92 95 97 97 97 97 96 96 96
94 94 80 94 92 94 96 89 88 88 87 87 89 80 77 87 90 92 95 96 97 97 97 97 98 97 97 97 98 97 93 89 81 87 88 88 89 94 90 94 95 95 96
96 94 92 94 94 95 89 84 87 88 88 90 87 81 79 86 92 93 94 95 97 97 98 98 97 97 98 98 94 95 93 90 80 88 88 88 89 88 91 95 95 94 93
95 92 92 92 94 84 84 90 90 92 87 88 81 86 87 89 90 92 94 95 97 97 97 98 98 97 97 97 99 97 95 91 83 92 92 91 89 89 91 96 96 96 94
94 94 94 96 87 86 93 90 88 83 85 93 87 86 91 90 95 95 95 97 97 97 98 98 98 98 97 97 99 96 92 88 87 87 92 93 90 90 91 94 96 92 94
91 93 94 98 89 93 88 87 90 90 87 92 86 89 92 86 92 93 95 97 97 98 98 98 98 98 99 99 99 98 92 88 87 86 95 93 88 90 92 93 92 98 94
88 88 93 97 98 90 92 89 91 90 91 88 90 92 87 90 94 96 97 97 98 97 98 98 98 99 98 98 98 98 97 88 85 80 90 94 90 92 90 91 91 94 95